| time (UTC) | temp C | wind direction | speed KPH | gust KPH | rain 1hr cm | rain 24hr cm | rain mn cm | humidity % | barometer mb |
| 20260504234130 | 15 | 180 | 0.0 | 0.0 | 0.00 | 0.00 | 0.00 | 34 | 1012.0 |
| 20260504233617 | 15 | 180 | 0.0 | 0.0 | 0.00 | 0.00 | 0.00 | 35 | 1012.0 |
| 20260504232631 | 15 | 180 | 0.0 | 0.0 | 0.00 | 0.00 | 0.00 | 36 | 1012.0 |
| 20260504231131 | 14 | 180 | 0.0 | 0.0 | 0.00 | 0.00 | 0.00 | 39 | 1012.0 |
| 20260504230616 | 13 | 180 | 0.0 | 0.0 | 0.00 | 0.00 | 0.00 | 39 | 1012.0 |
| 20260504225631 | 13 | 135 | 0.0 | 0.0 | 0.00 | 0.00 | 0.00 | 41 | 1012.0 |
| 20260504224130 | 13 | 135 | 0.0 | 0.0 | 0.00 | 0.00 | 0.00 | 45 | 1012.0 |
| 20260504223616 | 13 | 135 | 0.0 | 0.0 | 0.00 | 0.00 | 0.00 | 45 | 1012.0 |
| 20260504222632 | 13 | 135 | 0.0 | 0.0 | 0.00 | 0.00 | 0.00 | 46 | 1012.0 |
| 20260504221131 | 12 | 135 | 0.0 | 0.0 | 0.00 | 0.00 | 0.00 | 48 | 1011.0 |
| 20260504220616 | 12 | 135 | 0.0 | 0.0 | 0.00 | 0.00 | 0.00 | 48 | 1012.0 |
| 20260504215631 | 12 | 135 | 0.0 | 0.0 | 0.00 | 0.00 | 0.00 | 49 | 1012.0 |
| 20260504214130 | 11 | 135 | 0.0 | 0.0 | 0.00 | 0.00 | 0.00 | 53 | 1011.0 |
| 20260504213617 | 11 | 135 | 0.0 | 0.0 | 0.00 | 0.00 | 0.00 | 54 | 1012.0 |
| 20260504212632 | 11 | 135 | 0.0 | 0.0 | 0.00 | 0.00 | 0.00 | 56 | 1012.0 |
| 20260504211131 | 11 | 135 | 0.0 | 0.0 | 0.00 | 0.00 | 0.00 | 58 | 1011.0 |
| 20260504210616 | 11 | 135 | 0.0 | 0.0 | 0.00 | 0.00 | 0.00 | 59 | 1010.0 |
| 20260504205631 | 10 | 135 | 0.0 | 0.0 | 0.00 | 0.00 | 0.00 | 58 | 1010.0 |
| 20260504204130 | 10 | 135 | 0.0 | 0.0 | 0.00 | 0.00 | 0.00 | 58 | 1010.0 |
| 20260504203617 | 10 | 135 | 0.0 | 0.0 | 0.00 | 0.00 | 0.00 | 59 | 1010.0 |
| 20260504202630 | 10 | 135 | 0.0 | 0.0 | 0.00 | 0.00 | 0.00 | 60 | 1010.0 |
| 20260504201129 | 10 | 135 | 0.0 | 0.0 | 0.00 | 0.00 | 0.00 | 61 | 1010.0 |
| 20260504200617 | 10 | 135 | 0.0 | 0.0 | 0.00 | 0.00 | 0.00 | 60 | 1009.0 |
| 20260504195631 | 10 | 135 | 0.0 | 0.0 | 0.00 | 0.00 | 0.00 | 60 | 1009.0 |
| 20260504194129 | 10 | 135 | 0.0 | 0.0 | 0.00 | 0.00 | 0.00 | 59 | 1009.0 |
| 20260504193616 | 10 | 135 | 0.0 | 0.0 | 0.00 | 0.00 | 0.00 | 58 | 1009.0 |
| 20260504192631 | 10 | 135 | 0.0 | 0.0 | 0.00 | 0.00 | 0.00 | 57 | 1009.0 |
| 20260504191131 | 10 | 135 | 0.0 | 0.0 | 0.00 | 0.10 | 0.00 | 56 | 1009.0 |
| 20260504190616 | 10 | 135 | 0.0 | 0.0 | 0.00 | 0.10 | 0.00 | 55 | 1009.0 |
| 20260504185630 | 10 | 135 | 0.0 | 0.0 | 0.00 | 0.10 | 0.00 | 54 | 1009.0 |
| 20260504184131 | 11 | 270 | 0.0 | 3.2 | 0.00 | 0.30 | 0.00 | 51 | 1009.0 |
| 20260504183616 | 11 | 270 | 0.0 | 0.0 | 0.00 | 0.53 | 0.00 | 50 | 1009.0 |
| 20260504182631 | 11 | 270 | 0.0 | 0.0 | 0.00 | 0.74 | 0.00 | 49 | 1009.0 |
| 20260504181131 | 12 | 270 | 0.0 | 0.0 | 0.00 | 0.84 | 0.00 | 48 | 1008.0 |
| 20260504180616 | 12 | 270 | 0.0 | 0.0 | 0.00 | 0.84 | 0.00 | 47 | 1009.0 |
| 20260504175630 | 12 | 270 | 0.0 | 0.0 | 0.00 | 1.27 | 0.00 | 47 | 1009.0 |
| 20260504174129 | 12 | 315 | 3.2 | 4.8 | 0.00 | 1.70 | 0.00 | 46 | 1008.0 |
| 20260504173615 | 12 | 315 | 0.0 | 3.2 | 0.00 | 1.91 | 0.00 | 46 | 1008.0 |
| 20260504172630 | 12 | 270 | 0.0 | 0.0 | 0.00 | 2.21 | 0.00 | 45 | 1008.0 |
| 20260504171130 | 12 | 270 | 0.0 | 0.0 | 0.00 | 2.64 | 0.00 | 44 | 1008.0 |
| 20260504170617 | 12 | 315 | 0.0 | 0.0 | 0.00 | 2.74 | 0.00 | 44 | 1008.0 |
| 20260504151130 | 13 | 315 | 9.7 | 12.9 | 0.00 | 3.28 | 0.00 | 41 | 1007.0 |
| 20260504150617 | 13 | 315 | 1.6 | 4.8 | 0.00 | 3.28 | 0.00 | 41 | 1007.0 |
| 20260504141129 | 13 | 315 | 3.2 | 4.8 | 0.00 | 4.88 | 3.28 | 42 | 1007.0 |
| 20260504140616 | 13 | 270 | 0.0 | 3.2 | 0.00 | 4.88 | 3.28 | 41 | 1007.0 |
| 20260504130616 | 14 | 270 | 0.0 | 8.0 | 0.00 | 5.82 | 3.28 | 39 | 1006.0 |
| 20260504110618 | 15 | 310 | 9.7 | 9.7 | 0.00 | 6.12 | 3.28 | 36 | 1004.0 |
| 20260504081132 | 17 | 270 | 0.0 | 3.2 | 0.00 | 7.09 | 3.28 | 39 | 1001.0 |
| 20260504080617 | 17 | 225 | 0.0 | 3.2 | 0.00 | 7.09 | 3.28 | 38 | 1000.0 |
| 20260504050617 | 21 | 257 | 9.7 | 12.9 | 0.00 | 7.19 | 3.28 | 24 | 997.0 |
| 20260504045633 | 21 | 282 | 11.3 | 12.9 | 0.00 | 7.19 | 3.28 | 24 | 997.0 |
| 20260504043617 | 21 | 291 | 9.7 | 16.1 | 0.00 | 7.19 | 3.28 | 25 | 997.0 |
| 20260504042631 | 21 | 263 | 9.7 | 24.1 | 0.00 | 7.19 | 3.28 | 25 | 997.0 |
| 20260504041130 | 21 | 204 | 11.3 | 12.9 | 0.00 | 7.19 | 3.28 | 26 | 997.0 |
| 20260504040618 | 20 | 245 | 9.7 | 11.3 | 0.00 | 7.19 | 3.28 | 26 | 997.0 |
| 20260504035631 | 20 | 251 | 8.0 | 12.9 | 0.00 | 7.19 | 3.28 | 27 | 997.0 |
| 20260504034132 | 20 | 206 | 4.8 | 9.7 | 0.00 | 7.19 | 3.28 | 27 | 997.0 |
| 20260504033617 | 20 | 183 | 4.8 | 9.7 | 0.00 | 7.19 | 3.28 | 27 | 997.0 |
| 20260504032631 | 20 | 162 | 8.0 | 12.9 | 0.00 | 7.19 | 3.28 | 26 | 997.0 |
| 20260504031132 | 21 | 191 | 9.7 | 12.9 | 0.00 | 7.19 | 3.28 | 25 | 996.0 |
| 20260504030617 | 21 | 279 | 14.5 | 24.1 | 0.00 | 7.19 | 3.28 | 24 | 997.0 |
| 20260504025632 | 21 | 209 | 9.7 | 12.9 | 0.00 | 7.19 | 3.28 | 25 | 997.0 |
| 20260504024132 | 21 | 242 | 4.8 | 14.5 | 0.00 | 7.19 | 3.28 | 27 | 996.0 |
| 20260504023616 | 21 | 184 | 4.8 | 4.8 | 0.00 | 7.19 | 3.28 | 27 | 996.0 |
| 20260504022631 | 21 | 193 | 8.0 | 9.7 | 0.00 | 7.19 | 3.28 | 28 | 996.0 |
| 20260504021132 | 21 | 191 | 8.0 | 9.7 | 0.00 | 7.19 | 3.28 | 28 | 996.0 |
| 20260504020617 | 21 | 195 | 4.8 | 9.7 | 0.00 | 7.19 | 3.28 | 29 | 996.0 |
| 20260504015632 | 21 | 91 | 9.7 | 14.5 | 0.00 | 7.19 | 3.28 | 28 | 996.0 |
| 20260504014132 | 21 | 275 | 8.0 | 9.7 | 0.00 | 7.19 | 3.28 | 32 | 996.0 |
| 20260504013617 | 20 | 198 | 4.8 | 9.7 | 0.00 | 7.19 | 3.28 | 32 | 996.0 |
| 20260504012632 | 20 | 291 | 8.0 | 12.9 | 0.00 | 7.19 | 3.28 | 33 | 996.0 |
| 20260504011132 | 20 | 253 | 4.8 | 12.9 | 0.00 | 7.19 | 3.28 | 35 | 996.0 |
| 20260504010616 | 20 | 234 | 4.8 | 4.8 | 0.00 | 7.19 | 3.28 | 35 | 996.0 |
| 20260504005631 | 20 | 193 | 8.0 | 9.7 | 0.00 | 7.19 | 3.28 | 34 | 996.0 |
| 20260504004131 | 20 | 212 | 3.2 | 4.8 | 0.00 | 7.19 | 3.28 | 36 | 996.0 |
| 20260504003617 | 20 | 241 | 4.8 | 8.0 | 0.00 | 7.19 | 3.28 | 35 | 996.0 |
| 20260504002630 | 19 | 251 | 8.0 | 4.8 | 0.00 | 7.19 | 3.28 | 36 | 996.0 |
| 20260504001132 | 19 | 282 | 4.8 | 9.7 | 0.00 | 7.19 | 3.28 | 39 | 996.0 |
| 20260504000617 | 19 | 274 | 8.0 | 9.7 | 0.00 | 7.19 | 3.28 | 41 | 996.0 |
| 20260503235632 | 19 | 249 | 4.8 | 9.7 | 0.00 | 7.19 | 3.28 | 41 | 996.0 |